NORTHERN QUEENS  -  Air Quality Alert Air Quality Alert        SOUTHERN QUEENS  -  Air Quality Alert Air Quality Alert      

Active alerts

Northern Queens
  Details for Northern Queens Air Quality Alert
Southern Queens
  Details for Southern Queens Air Quality Alert


WXM80 ListenWXM80 Stop

You find our weather info also at:

UK Metoffice

WeatherCloud

Weather Underground

Northeastern Weather Network

AWEKAS

Citizen Weather Observer Program (CWOP)

HAMweather, WeatherForYou, PWS Weather


Weather Underground History page Text

Daily Summary for June 23, 2017 Units:  Metric    English   Both
« Previous Day
Next Day »
Daily Weekly Monthly Yearly Custom
  High: Low: Average:
Temperature: 29.9 °C 23.4 °C 25.9 °C
Dew Point: 24.5 °C 21.1 °C 22.7 °C
Humidity: 90 % 69 % 82 %
Wind Speed: 13.4 km/h 0 km/h 2.6 km/h
Wind Gust: 31.5 km/h - -
Wind:- - SSW
Pressure: 1011.1 hPa 1001.2 hPa -
Precipitation: 0 mm    
Historical Graphs
 
 
Tabular Data for June 23, 2017
Time Temperature Dew Point Pressure Wind Wind Speed Wind Gust Humidity Rainfall Rate (Hourly)
00:00 23.4 °C 21.2 °C 1011.1 hPa SW 1.9 km/h 7.4 km/h 87 % 0 mm
00:05 23.4 °C 21.2 °C 1010.7 hPa SSW 1.3 km/h 3.7 km/h 87 % 0 mm
00:10 23.5 °C 21.2 °C 1010.7 hPa SSW 4.7 km/h 7.4 km/h 87 % 0 mm
00:15 23.6 °C 21.3 °C 1010.7 hPa SSE 3.1 km/h 5.6 km/h 87 % 0 mm
00:20 23.6 °C 21.3 °C 1010.7 hPa SW 2.7 km/h 5.6 km/h 87 % 0 mm
00:25 23.6 °C 21.3 °C 1010.7 hPa WSW 1.4 km/h 5.6 km/h 87 % 0 mm
00:30 23.6 °C 21.1 °C 1010.7 hPa WSW 1.8 km/h 3.7 km/h 86 % 0 mm
00:35 23.7 °C 21.2 °C 1010.7 hPa SW 1.4 km/h 5.6 km/h 86 % 0 mm
00:40 23.7 °C 21.2 °C 1010.4 hPa SW 1.4 km/h 3.7 km/h 86 % 0 mm
00:45 23.7 °C 21.2 °C 1010.7 hPa SW 0.6 km/h 3.7 km/h 86 % 0 mm
00:50 23.7 °C 21.2 °C 1010.4 hPa Calm   5.6 km/h 86 % 0 mm
00:55 23.8 °C 21.3 °C 1010.4 hPa WSW 1.1 km/h 5.6 km/h 86 % 0 mm
01:00 23.8 °C 21.3 °C 1010.4 hPa WSW 1.4 km/h 5.6 km/h 86 % 0 mm
01:05 23.8 °C 21.3 °C 1010 hPa WSW 1.6 km/h 3.7 km/h 86 % 0 mm
01:10 23.8 °C 21.3 °C 1010.4 hPa WSW 1 km/h 5.6 km/h 86 % 0 mm
01:15 23.9 °C 21.4 °C 1010.4 hPa SW 2.4 km/h 5.6 km/h 86 % 0 mm
01:21 23.9 °C 21.4 °C 1010 hPa SW 3.2 km/h 6.4 km/h 86 % 0 mm
01:26 23.9 °C 21.4 °C 1010 hPa Calm   8 km/h 86 % 0 mm
01:31 23.9 °C 21.4 °C 1010 hPa SSW 1.6 km/h 4.8 km/h 86 % 0 mm
01:36 24 °C 21.5 °C 1010 hPa Calm   4.8 km/h 86 % 0 mm
01:41 24 °C 21.5 °C 1009.7 hPa SW 1.6 km/h 8 km/h 86 % 0 mm
01:46 24.1 °C 21.6 °C 1009.7 hPa SSW 1.6 km/h 5.6 km/h 86 % 0 mm
01:51 24.1 °C 21.6 °C 1009.7 hPa SW 3.2 km/h 8 km/h 86 % 0 mm
01:56 24.1 °C 21.6 °C 1009.7 hPa SW 1.6 km/h 9.7 km/h 86 % 0 mm
02:01 24.1 °C 21.6 °C 1009.7 hPa NW 1.4 km/h 5.6 km/h 86 % 0 mm
02:06 24.1 °C 21.6 °C 1009.7 hPa West 2.7 km/h 5.6 km/h 86 % 0 mm
02:11 24.1 °C 21.6 °C 1009.4 hPa West 3.7 km/h 5.6 km/h 86 % 0 mm
02:16 24.2 °C 21.7 °C 1009.4 hPa West 0.3 km/h 5.6 km/h 86 % 0 mm
02:21 24.2 °C 21.7 °C 1009.4 hPa WSW 4.8 km/h 5.6 km/h 86 % 0 mm
02:26 24.2 °C 21.7 °C 1009.4 hPa SW 2.6 km/h 5.6 km/h 86 % 0 mm
02:31 24.2 °C 21.7 °C 1009 hPa SW 1.6 km/h 5.6 km/h 86 % 0 mm
02:36 24.3 °C 21.8 °C 1009 hPa SW 1.3 km/h 5.6 km/h 86 % 0 mm
02:41 24.3 °C 21.8 °C 1009 hPa SSW 2.1 km/h 3.7 km/h 86 % 0 mm
02:46 24.3 °C 21.8 °C 1009 hPa SSW 1.8 km/h 3.7 km/h 86 % 0 mm
02:51 24.3 °C 21.8 °C 1009 hPa SW 2.7 km/h 5.6 km/h 86 % 0 mm
02:56 24.3 °C 21.8 °C 1008.7 hPa SW 2.1 km/h 8 km/h 86 % 0 mm
03:01 24.3 °C 21.8 °C 1008.7 hPa WSW 2.6 km/h 5.6 km/h 86 % 0 mm
03:06 24.3 °C 21.8 °C 1008.7 hPa SW 1.1 km/h 3.7 km/h 86 % 0 mm
03:11 24.3 °C 21.8 °C 1008.7 hPa SW 4 km/h 5.6 km/h 86 % 0 mm
03:16 24.4 °C 21.7 °C 1008.4 hPa SW 1.3 km/h 5.6 km/h 85 % 0 mm
03:21 24.4 °C 21.7 °C 1008.7 hPa SSW 3.2 km/h 9.7 km/h 85 % 0 mm
03:26 24.4 °C 21.7 °C 1008.7 hPa SSW 3.9 km/h 5.6 km/h 85 % 0 mm
03:31 24.4 °C 21.7 °C 1008.7 hPa WSW 4 km/h 9.3 km/h 85 % 0 mm
03:36 24.4 °C 21.7 °C 1008.4 hPa WSW 3.2 km/h 5.6 km/h 85 % 0 mm
03:41 24.4 °C 21.8 °C 1008.4 hPa SSW 3.9 km/h 8 km/h 85 % 0 mm
03:46 24.4 °C 21.8 °C 1008.4 hPa SSW 1.9 km/h 5.6 km/h 85 % 0 mm
03:51 24.4 °C 21.8 °C 1008.4 hPa SW 2.1 km/h 5.6 km/h 85 % 0 mm
03:57 24.4 °C 21.8 °C 1008.4 hPa SW 0.8 km/h 3.7 km/h 85 % 0 mm
04:02 24.4 °C 21.7 °C 1008.4 hPa WSW 0.5 km/h 3.7 km/h 85 % 0 mm
04:07 24.4 °C 21.7 °C 1008.4 hPa SW 1.3 km/h 5.6 km/h 85 % 0 mm
04:12 24.3 °C 21.7 °C 1008.4 hPa SW 1.9 km/h 1.9 km/h 85 % 0 mm
04:17 24.3 °C 21.8 °C 1008.4 hPa SW 2.9 km/h 4.8 km/h 86 % 0 mm
04:22 24.3 °C 21.8 °C 1008.4 hPa SW 2.4 km/h 5.6 km/h 86 % 0 mm
04:27 24.3 °C 21.8 °C 1008.4 hPa SW 1.6 km/h 3.7 km/h 86 % 0 mm
04:32 24.2 °C 21.7 °C 1008.4 hPa SSW 1.4 km/h 3.7 km/h 86 % 0 mm
04:37 24.2 °C 21.7 °C 1008.4 hPa SSW 1.1 km/h 3.7 km/h 86 % 0 mm
04:42 24.2 °C 21.7 °C 1008.4 hPa SSW 1 km/h 3.7 km/h 86 % 0 mm
04:47 24.1 °C 21.6 °C 1008 hPa SSW 0.2 km/h 1.9 km/h 86 % 0 mm
04:52 24.1 °C 21.6 °C 1008 hPa WSW 0.2 km/h 1.9 km/h 86 % 0 mm
04:57 24.1 °C 21.8 °C 1008.4 hPa SW 1.4 km/h 3.7 km/h 87 % 0 mm
05:02 24 °C 21.7 °C 1008 hPa SW 1.9 km/h 5.6 km/h 87 % 0 mm
05:07 23.9 °C 21.7 °C 1008.4 hPa South 1.9 km/h 5.6 km/h 87 % 0 mm
05:12 23.9 °C 21.7 °C 1008.4 hPa South 1 km/h 3.7 km/h 87 % 0 mm
05:17 23.9 °C 21.8 °C 1008.4 hPa South 0.5 km/h 5.6 km/h 88 % 0 mm
05:22 23.8 °C 21.7 °C 1008.4 hPa South 0.2 km/h 1.9 km/h 88 % 0 mm
05:27 23.8 °C 21.7 °C 1008.4 hPa SSE 0.6 km/h 1.9 km/h 88 % 0 mm
05:32 23.8 °C 21.7 °C 1008.4 hPa SSE 1 km/h 1.9 km/h 88 % 0 mm
05:37 23.8 °C 21.7 °C 1008.4 hPa SSE 0.5 km/h 3.7 km/h 88 % 0 mm
05:42 23.7 °C 21.6 °C 1008.4 hPa SSE 3.1 km/h 5.6 km/h 88 % 0 mm
05:47 23.7 °C 21.6 °C 1008.4 hPa South 2.7 km/h 5.6 km/h 88 % 0 mm
05:58 23.7 °C 21.7 °C 1008.7 hPa West 3.4 km/h 7.4 km/h 89 % 0 mm
06:03 23.7 °C 21.7 °C 1008.7 hPa SW 1.6 km/h 5.6 km/h 89 % 0 mm
06:08 23.7 °C 21.7 °C 1008.4 hPa WSW 2.9 km/h 5.6 km/h 89 % 0 mm
06:13 23.7 °C 21.7 °C 1008.4 hPa SW 3.7 km/h 4.8 km/h 89 % 0 mm
06:18 23.7 °C 21.7 °C 1008.7 hPa WSW 0.5 km/h 1.9 km/h 89 % 0 mm
06:23 23.7 °C 21.8 °C 1008.4 hPa WSW 1.1 km/h 5.6 km/h 89 % 0 mm
06:28 23.8 °C 21.8 °C 1008.4 hPa SSW 0.6 km/h 3.7 km/h 89 % 0 mm
06:33 23.8 °C 22.1 °C 1008.4 hPa SSW 0.5 km/h 1.9 km/h 90 % 0 mm
06:38 23.9 °C 22.2 °C 1008.7 hPa SW 3.5 km/h 5.6 km/h 90 % 0 mm
06:43 24.1 °C 22.3 °C 1008.7 hPa SW 1.3 km/h 3.7 km/h 90 % 0 mm
06:48 24.2 °C 22.4 °C 1008.7 hPa SW 1.3 km/h 5.6 km/h 90 % 0 mm
06:53 24.3 °C 22.4 °C 1008.7 hPa WSW 1.9 km/h 5.6 km/h 89 % 0 mm
06:58 24.4 °C 22.5 °C 1008.7 hPa South 0.8 km/h 3.7 km/h 89 % 0 mm
07:03 24.6 °C 22.4 °C 1008.7 hPa SW 1.3 km/h 3.7 km/h 88 % 0 mm
07:08 24.6 °C 22.5 °C 1008.7 hPa WSW 0.2 km/h 1.6 km/h 88 % 0 mm
07:13 24.7 °C 22.6 °C 1008.7 hPa SW 5.5 km/h 11.1 km/h 88 % 0 mm
07:18 24.8 °C 22.4 °C 1008.4 hPa WSW 0.3 km/h 3.7 km/h 87 % 0 mm
07:23 24.8 °C 22.4 °C 1008.4 hPa West 0.8 km/h 6.4 km/h 87 % 0 mm
07:28 24.8 °C 22.5 °C 1008.4 hPa Calm   3.7 km/h 87 % 0 mm
07:33 24.9 °C 22.6 °C 1008.4 hPa West 0.8 km/h 5.6 km/h 87 % 0 mm
07:38 24.9 °C 22.6 °C 1008.4 hPa SW 2.6 km/h 5.6 km/h 87 % 0 mm
07:43 25 °C 22.7 °C 1008.4 hPa South 1 km/h 3.7 km/h 87 % 0 mm
07:48 25.1 °C 22.7 °C 1008.4 hPa West 1.9 km/h 5.6 km/h 87 % 0 mm
07:53 25.2 °C 22.8 °C 1008.4 hPa Calm   1.9 km/h 87 % 0 mm
07:59 25.3 °C 22.9 °C 1008.4 hPa WSW 1.1 km/h 5.6 km/h 87 % 0 mm
08:09 25.5 °C 22.8 °C 1008 hPa WSW 0.5 km/h 5.6 km/h 85 % 0 mm
08:14 25.6 °C 22.9 °C 1008.4 hPa Calm   3.7 km/h 85 % 0 mm
08:19 25.8 °C 23.1 °C 1008 hPa WSW 1 km/h 5.6 km/h 85 % 0 mm
08:24 25.9 °C 23.2 °C 1008 hPa SSW 3.4 km/h 5.6 km/h 85 % 0 mm
08:29 26.1 °C 23.2 °C 1008 hPa West 1.3 km/h 3.7 km/h 84 % 0 mm
08:34 26.3 °C 23.3 °C 1008 hPa West 1.8 km/h 5.6 km/h 84 % 0 mm
08:39 26.5 °C 23.2 °C 1008 hPa East 0.3 km/h 3.7 km/h 82 % 0 mm
08:44 26.7 °C 23.4 °C 1008 hPa WSW 2.4 km/h 5.6 km/h 82 % 0 mm
08:49 26.9 °C 23.6 °C 1008 hPa WSW 1.3 km/h 3.7 km/h 82 % 0 mm
08:54 27.1 °C 23.7 °C 1007.7 hPa SSE 1.1 km/h 3.7 km/h 82 % 0 mm
08:59 27.3 °C 23.7 °C 1007.7 hPa Calm   1.9 km/h 81 % 0 mm
09:04 27.4 °C 23.8 °C 1007.7 hPa ENE 0.8 km/h 1.9 km/h 81 % 0 mm
09:09 27.6 °C 23.8 °C 1007.7 hPa SW 1.4 km/h 5.6 km/h 80 % 0 mm
09:14 27.7 °C 23.9 °C 1007.7 hPa SE 1.6 km/h 5.6 km/h 80 % 0 mm
09:19 27.8 °C 24 °C 1007.7 hPa SSE 1.1 km/h 1.9 km/h 80 % 0 mm
09:24 27.8 °C 24.1 °C 1007.3 hPa SW 1.8 km/h 5.6 km/h 80 % 0 mm
09:29 27.8 °C 23.8 °C 1007.3 hPa SW 0.6 km/h 3.7 km/h 79 % 0 mm
09:34 27.8 °C 23.8 °C 1007.3 hPa South 1.1 km/h 5.6 km/h 79 % 0 mm
09:39 27.8 °C 23.8 °C 1007.3 hPa Calm   1.6 km/h 79 % 0 mm
09:44 27.8 °C 23.6 °C 1007.3 hPa NW 0.2 km/h 3.7 km/h 78 % 0 mm
09:49 27.8 °C 24 °C 1007.3 hPa West 0.8 km/h 1.9 km/h 80 % 0 mm
09:54 27.7 °C 23.9 °C 1007 hPa East 0.3 km/h 1.6 km/h 80 % 0 mm
09:59 27.8 °C 23.8 °C 1007 hPa South 2.1 km/h 5.6 km/h 79 % 0 mm
10:04 27.8 °C 23.8 °C 1007 hPa South 0.2 km/h 3.7 km/h 79 % 0 mm
10:09 27.8 °C 23.8 °C 1006.7 hPa West 2.4 km/h 3.2 km/h 79 % 0 mm
10:14 27.8 °C 24 °C 1006.7 hPa SSW 2.7 km/h 4.8 km/h 80 % 0 mm
10:20 27.8 °C 23.6 °C 1007 hPa SSE 0.3 km/h 3.7 km/h 78 % 0 mm
10:25 27.8 °C 23.8 °C 1007 hPa SE 2.1 km/h 5.6 km/h 79 % 0 mm
10:30 27.8 °C 23.8 °C 1007 hPa West 0.5 km/h 3.7 km/h 79 % 0 mm
10:35 27.9 °C 23.7 °C 1006.7 hPa SSE 0.8 km/h 7.4 km/h 78 % 0 mm
10:40 28 °C 23.8 °C 1006.7 hPa South 0.3 km/h 3.7 km/h 78 % 0 mm
10:45 28.1 °C 23.8 °C 1006.7 hPa SW 0.3 km/h 1.9 km/h 78 % 0 mm
10:50 28.1 °C 23.9 °C 1006.7 hPa SSE 1.1 km/h 5.6 km/h 78 % 0 mm
10:55 28.2 °C 23.9 °C 1006.3 hPa SSE 3.4 km/h 14.8 km/h 78 % 0 mm
11:00 28.1 °C 23.5 °C 1006.3 hPa South 6.1 km/h 9.7 km/h 76 % 0 mm
11:05 27.9 °C 23.7 °C 1006.7 hPa SW 3.9 km/h 7.4 km/h 78 % 0 mm
11:10 27.9 °C 23.9 °C 1006.7 hPa SSW 4 km/h 5.6 km/h 79 % 0 mm
11:15 27.7 °C 23.6 °C 1006.7 hPa SSE 1.1 km/h 5.6 km/h 78 % 0 mm
11:20 27.6 °C 23.6 °C 1006.3 hPa SSW 3.7 km/h 5.6 km/h 79 % 0 mm
11:25 27.4 °C 23.5 °C 1006.3 hPa SSE 3.1 km/h 7.4 km/h 79 % 0 mm
11:30 27.3 °C 23.6 °C 1006.3 hPa WSW 1.3 km/h 3.7 km/h 80 % 0 mm
11:35 27.2 °C 23.4 °C 1006.3 hPa SSW 4 km/h 6.4 km/h 80 % 0 mm
11:40 27.2 °C 23.6 °C 1006 hPa SSE 3.5 km/h 5.6 km/h 81 % 0 mm
11:45 27.2 °C 23.6 °C 1006 hPa South 4.7 km/h 14.8 km/h 81 % 0 mm
11:50 27.2 °C 23.6 °C 1006 hPa South 1.6 km/h 5.6 km/h 81 % 0 mm
11:55 27.2 °C 23.9 °C 1006 hPa SSW 4.8 km/h 13 km/h 82 % 0 mm
12:00 27.4 °C 23.8 °C 1006 hPa SE 2.9 km/h 5.6 km/h 81 % 0 mm
12:05 27.6 °C 24.1 °C 1006 hPa SSW 2.3 km/h 13 km/h 81 % 0 mm
12:11 27.8 °C 24.1 °C 1006 hPa South 1.6 km/h 9.7 km/h 80 % 0 mm
12:16 28 °C 24.2 °C 1006 hPa South 1.6 km/h 12.9 km/h 80 % 0 mm
12:21 28.2 °C 24.2 °C 1005.6 hPa South 4.8 km/h 14.5 km/h 79 % 0 mm
12:26 28.4 °C 24.4 °C 1005.6 hPa SSW 1.6 km/h 14.5 km/h 79 % 0 mm
12:31 28.6 °C 24.4 °C 1005.6 hPa South 1.9 km/h 16.7 km/h 78 % 0 mm
12:36 28.7 °C 24.1 °C 1005.3 hPa SSW 3.2 km/h 11.3 km/h 76 % 0 mm
12:41 28.9 °C 24.2 °C 1005.3 hPa SW 3.2 km/h 16.1 km/h 76 % 0 mm
12:46 29.1 °C 24.2 °C 1005.3 hPa SSW 2.4 km/h 7.4 km/h 75 % 0 mm
12:51 29.2 °C 24.3 °C 1005 hPa WSW 1.8 km/h 14.5 km/h 75 % 0 mm
12:56 29.3 °C 23.9 °C 1005 hPa WSW 5.5 km/h 11.1 km/h 73 % 0 mm
12:58 29.3 °C 24.2 °C 1005 hPa SSE 1 km/h 5.6 km/h 74 % 0 mm
13:03 29.5 °C 24.2 °C 1005 hPa South 6.4 km/h 13 km/h 73 % 0 mm
13:08 29.6 °C 23.9 °C 1005 hPa ESE 2.3 km/h 11.1 km/h 72 % 0 mm
13:13 29.6 °C 23.9 °C 1005 hPa SSW 3.1 km/h 9.3 km/h 72 % 0 mm
13:18 29.7 °C 24.1 °C 1004.6 hPa South 7.2 km/h 9.7 km/h 72 % 0 mm
13:23 29.7 °C 23.8 °C 1004.6 hPa South 4.8 km/h 6.4 km/h 71 % 0 mm
13:29 29.7 °C 24.1 °C 1004.6 hPa SW 8.7 km/h 9.3 km/h 72 % 0 mm
13:34 29.8 °C 24.2 °C 1004.3 hPa SSW 4 km/h 11.3 km/h 72 % 0 mm
13:39 29.9 °C 24.1 °C 1004.3 hPa SSW 4.2 km/h 9.7 km/h 71 % 0 mm
13:44 29.9 °C 24.5 °C 1004.3 hPa SE 2.6 km/h 9.3 km/h 73 % 0 mm
13:49 29.8 °C 23.5 °C 1003.9 hPa SW 3.7 km/h 7.4 km/h 69 % 0 mm
13:54 29.7 °C 23.6 °C 1003.9 hPa SSE 2.6 km/h 8 km/h 70 % 0 mm
13:59 29.4 °C 23.4 °C 1003.9 hPa SSW 2.7 km/h 5.6 km/h 70 % 0 mm
14:04 29.3 °C 23.2 °C 1003.9 hPa WSW 3.2 km/h 31.5 km/h 70 % 0 mm
14:09 29.1 °C 23.3 °C 1003.9 hPa SSW 6.8 km/h 16.7 km/h 71 % 0 mm
14:14 28.8 °C 23.2 °C 1003.9 hPa SSW 2.6 km/h 7.4 km/h 72 % 0 mm
14:19 28.6 °C 23.5 °C 1003.9 hPa South 7.9 km/h 16.1 km/h 74 % 0 mm
14:24 28.5 °C 23.2 °C 1003.9 hPa SSW 6.1 km/h 9.3 km/h 73 % 0 mm
14:29 28.3 °C 23 °C 1003.9 hPa SW 7.4 km/h 11.3 km/h 73 % 0 mm
14:34 28.2 °C 23.1 °C 1003.9 hPa South 4.3 km/h 9.3 km/h 74 % 0 mm
14:39 28.1 °C 23.1 °C 1003.9 hPa SSW 3.7 km/h 5.6 km/h 74 % 0 mm
14:44 28.1 °C 23 °C 1003.6 hPa SSW 3.5 km/h 9.3 km/h 74 % 0 mm
14:49 28.1 °C 23 °C 1003.6 hPa WSW 6.9 km/h 11.1 km/h 74 % 0 mm
14:54 28.1 °C 23 °C 1003.6 hPa West 4.5 km/h 14.8 km/h 74 % 0 mm
14:59 27.9 °C 22.8 °C 1003.6 hPa SW 13.4 km/h 18.5 km/h 74 % 0 mm
15:04 27.7 °C 22.9 °C 1003.6 hPa SSW 5.3 km/h 11.1 km/h 75 % 0 mm
15:10 27.6 °C 22.8 °C 1003.6 hPa SSW 1.8 km/h 16.7 km/h 75 % 0 mm
15:15 27.5 °C 22.9 °C 1003.3 hPa WSW 3.5 km/h 9.7 km/h 76 % 0 mm
15:20 27.4 °C 23.1 °C 1003.3 hPa WSW 3.5 km/h 6.4 km/h 77 % 0 mm
15:25 27.4 °C 23.1 °C 1003.3 hPa SSE 0.8 km/h 4.8 km/h 77 % 0 mm
15:30 27.4 °C 22.8 °C 1003.6 hPa SW 6.6 km/h 11.1 km/h 76 % 0 mm
15:35 27.3 °C 22.7 °C 1003.3 hPa South 3.5 km/h 9.3 km/h 76 % 0 mm
15:40 27.4 °C 23 °C 1003.3 hPa SSW 5.5 km/h 11.1 km/h 77 % 0 mm
15:45 27.4 °C 23.1 °C 1003.3 hPa South 10 km/h 20.4 km/h 77 % 0 mm
15:50 27.6 °C 23 °C 1003.3 hPa SE 2.7 km/h 9.3 km/h 76 % 0 mm
15:55 27.7 °C 22.8 °C 1003.3 hPa SSW 3.4 km/h 8 km/h 75 % 0 mm
16:00 27.6 °C 23 °C 1003.3 hPa South 3.2 km/h 5.6 km/h 76 % 0 mm
16:05 27.5 °C 22.9 °C 1003.3 hPa SSW 5.8 km/h 11.1 km/h 76 % 0 mm
16:10 27.5 °C 23.1 °C 1002.9 hPa SW 3.4 km/h 7.4 km/h 77 % 0 mm
16:15 27.6 °C 22.9 °C 1002.9 hPa South 5.8 km/h 13 km/h 76 % 0 mm
16:20 27.6 °C 23.2 °C 1002.9 hPa SW 4.8 km/h 9.7 km/h 77 % 0 mm
16:25 27.6 °C 23 °C 1002.9 hPa North 6.8 km/h 11.1 km/h 76 % 0 mm
16:30 27.6 °C 23.2 °C 1002.9 hPa SW 2.7 km/h 7.4 km/h 77 % 0 mm
16:35 27.6 °C 23.2 °C 1002.9 hPa South 1.6 km/h 6.4 km/h 77 % 0 mm
16:40 27.7 °C 23.3 °C 1002.9 hPa SW 2.6 km/h 7.4 km/h 77 % 0 mm
16:45 27.7 °C 23.6 °C 1002.9 hPa SW 5.3 km/h 7.4 km/h 78 % 0 mm
16:50 27.8 °C 23.2 °C 1002.9 hPa SSE 5.8 km/h 9.3 km/h 76 % 0 mm
16:55 27.7 °C 23.1 °C 1002.9 hPa WSW 3.2 km/h 9.3 km/h 76 % 0 mm
17:00 27.6 °C 23 °C 1002.9 hPa SE 2.6 km/h 7.4 km/h 76 % 0 mm
17:05 27.6 °C 23.2 °C 1002.9 hPa SE 2.1 km/h 16.7 km/h 77 % 0 mm
17:10 27.3 °C 22.9 °C 1002.9 hPa SSW 5.1 km/h 5.6 km/h 77 % 0 mm
17:15 27.3 °C 23.1 °C 1002.9 hPa SSW 4.7 km/h 5.6 km/h 78 % 0 mm
17:20 27.2 °C 22.8 °C 1002.6 hPa SSW 2.9 km/h 14.8 km/h 77 % 0 mm
17:26 27.1 °C 22.7 °C 1002.6 hPa SSE 3.5 km/h 5.6 km/h 77 % 0 mm
17:30 26.9 °C 22.8 °C 1002.6 hPa West 1.9 km/h 5.6 km/h 78 % 0 mm
17:36 26.9 °C 22.7 °C 1002.6 hPa SSW 1.6 km/h 11.3 km/h 78 % 0 mm
17:41 26.8 °C 22.7 °C 1002.6 hPa South 8 km/h 19.3 km/h 78 % 0 mm
17:46 26.7 °C 22.8 °C 1002.9 hPa SE 4.7 km/h 13 km/h 79 % 0 mm
17:51 26.7 °C 23 °C 1002.6 hPa SSE 3.2 km/h 8 km/h 80 % 0 mm
17:56 26.7 °C 22.9 °C 1002.6 hPa Calm   8 km/h 80 % 0 mm
18:01 26.7 °C 22.9 °C 1002.6 hPa ESE 0.8 km/h 3.7 km/h 80 % 0 mm
18:06 26.6 °C 22.7 °C 1002.6 hPa ESE 0.5 km/h 3.7 km/h 79 % 0 mm
18:11 26.6 °C 22.6 °C 1002.6 hPa SSE 1.3 km/h 7.4 km/h 79 % 0 mm
18:16 26.4 °C 22.7 °C 1002.6 hPa SSW 4.2 km/h 5.6 km/h 80 % 0 mm
18:21 26.4 °C 22.7 °C 1002.6 hPa SSE 1 km/h 3.7 km/h 80 % 0 mm
18:26 26.3 °C 22.6 °C 1002.3 hPa South 2.4 km/h 4.8 km/h 80 % 0 mm
18:31 26.3 °C 22.8 °C 1002.3 hPa SSE 1.4 km/h 5.6 km/h 81 % 0 mm
18:36 26.3 °C 22.8 °C 1002.3 hPa SSW 2.3 km/h 7.4 km/h 81 % 0 mm
18:41 26.3 °C 22.8 °C 1001.9 hPa SSE 0.3 km/h 5.6 km/h 81 % 0 mm
18:46 26.3 °C 22.8 °C 1002.3 hPa South 1.4 km/h 5.6 km/h 81 % 0 mm
18:51 26.3 °C 22.9 °C 1002.3 hPa NNE 0.5 km/h 3.7 km/h 82 % 0 mm
18:55 26.2 °C 22.9 °C 1001.9 hPa SE 1.4 km/h 6.4 km/h 82 % 0 mm
19:00 26.2 °C 22.7 °C 1001.9 hPa SE 2.1 km/h 5.6 km/h 81 % 0 mm
19:04 26.2 °C 22.7 °C 1001.9 hPa South 1.9 km/h 7.4 km/h 81 % 0 mm
19:10 26.1 °C 22.6 °C 1001.9 hPa SSW 1.8 km/h 7.4 km/h 81 % 0 mm
19:15 26.1 °C 22.6 °C 1002.3 hPa SW 2.6 km/h 14.8 km/h 81 % 0 mm
19:20 26.1 °C 22.6 °C 1002.3 hPa SSE 2.9 km/h 13 km/h 81 % 0 mm
19:25 26 °C 22.7 °C 1002.3 hPa South 1.9 km/h 3.7 km/h 82 % 0 mm
19:30 26 °C 22.7 °C 1002.3 hPa SSE 1 km/h 1.9 km/h 82 % 0 mm
19:35 26 °C 22.7 °C 1002.3 hPa SSE 0.2 km/h 1.9 km/h 82 % 0 mm
19:40 25.9 °C 22.6 °C 1002.3 hPa ENE 2.7 km/h 5.6 km/h 82 % 0 mm
19:45 25.9 °C 22.4 °C 1001.9 hPa South 1 km/h 4.8 km/h 81 % 0 mm
19:50 25.8 °C 22.5 °C 1002.3 hPa SE 2.6 km/h 6.4 km/h 82 % 0 mm
19:55 25.8 °C 22.4 °C 1002.3 hPa SSE 2.1 km/h 5.6 km/h 82 % 0 mm
20:00 25.7 °C 22.4 °C 1001.9 hPa SE 2.3 km/h 5.6 km/h 82 % 0 mm
20:05 25.7 °C 22.4 °C 1001.9 hPa South 1.1 km/h 5.6 km/h 82 % 0 mm
20:10 25.6 °C 22.3 °C 1001.9 hPa SW 2.7 km/h 5.6 km/h 82 % 0 mm
20:15 25.6 °C 22.3 °C 1001.9 hPa SSW 2.4 km/h 5.6 km/h 82 % 0 mm
20:20 25.6 °C 22.3 °C 1001.9 hPa SSW 3.7 km/h 9.3 km/h 82 % 0 mm
20:25 25.5 °C 22.2 °C 1002.3 hPa South 2.1 km/h 11.1 km/h 82 % 0 mm
20:30 25.4 °C 22.1 °C 1001.9 hPa SSW 1.9 km/h 5.6 km/h 82 % 0 mm
20:35 25.3 °C 22.2 °C 1001.9 hPa SW 0.5 km/h 5.6 km/h 83 % 0 mm
20:40 25.2 °C 22.1 °C 1001.9 hPa South 3.4 km/h 9.3 km/h 83 % 0 mm
20:45 25.1 °C 22.2 °C 1001.9 hPa SSW 1.9 km/h 5.6 km/h 84 % 0 mm
20:50 24.9 °C 22.1 °C 1001.9 hPa WSW 2.1 km/h 6.4 km/h 84 % 0 mm
20:55 24.8 °C 22.1 °C 1001.9 hPa SW 3.4 km/h 5.6 km/h 85 % 0 mm
21:01 24.8 °C 22.3 °C 1001.9 hPa SSW 1.9 km/h 3.2 km/h 86 % 0 mm
21:06 24.7 °C 22.2 °C 1001.9 hPa SSW 1.6 km/h 6.4 km/h 86 % 0 mm
21:11 24.6 °C 22.1 °C 1001.9 hPa SSW 3.2 km/h 6.4 km/h 86 % 0 mm
21:16 24.4 °C 22.1 °C 1001.9 hPa SSW 1.6 km/h 6.4 km/h 87 % 0 mm
21:21 24.3 °C 22.1 °C 1001.9 hPa SSW 1.6 km/h 8 km/h 87 % 0 mm
21:26 24.3 °C 22.2 °C 1001.9 hPa South 1.6 km/h 4.8 km/h 88 % 0 mm
21:31 24.2 °C 22.1 °C 1001.6 hPa South 3.2 km/h 8 km/h 88 % 0 mm
21:36 24.1 °C 22 °C 1001.6 hPa South 1.6 km/h 8 km/h 88 % 0 mm
21:41 24.1 °C 21.9 °C 1001.6 hPa South 1.6 km/h 6.4 km/h 88 % 0 mm
21:45 24 °C 21.9 °C 1001.6 hPa SW 2.4 km/h 11.3 km/h 88 % 0 mm
21:51 24 °C 22.1 °C 1001.9 hPa SSW 3.2 km/h 9.7 km/h 89 % 0 mm
21:56 24 °C 22.1 °C 1001.9 hPa SSW 3.2 km/h 11.3 km/h 89 % 0 mm
22:01 24.1 °C 22.1 °C 1001.9 hPa SSW 8 km/h 11.3 km/h 89 % 0 mm
22:06 24.1 °C 22.2 °C 1001.9 hPa South 5 km/h 9.3 km/h 89 % 0 mm
22:11 24.2 °C 22.2 °C 1001.9 hPa SW 3.2 km/h 9.3 km/h 89 % 0 mm
22:16 24.2 °C 22.3 °C 1001.9 hPa SW 2.4 km/h 5.6 km/h 89 % 0 mm
22:21 24.3 °C 22.3 °C 1001.9 hPa SW 4.7 km/h 16.7 km/h 89 % 0 mm
22:26 24.3 °C 22.2 °C 1001.9 hPa SW 2.4 km/h 7.4 km/h 88 % 0 mm
22:31 24.4 °C 22.3 °C 1002.3 hPa SSW 6 km/h 14.8 km/h 88 % 0 mm
22:36 24.4 °C 22.3 °C 1001.9 hPa SSE 6 km/h 11.1 km/h 88 % 0 mm
22:41 24.6 °C 22.4 °C 1001.9 hPa SSW 6.6 km/h 11.3 km/h 88 % 0 mm
22:46 24.6 °C 22.5 °C 1001.9 hPa SSW 2.7 km/h 9.3 km/h 88 % 0 mm
22:51 24.7 °C 22.6 °C 1001.6 hPa SSW 1.9 km/h 11.1 km/h 88 % 0 mm
22:56 24.8 °C 22.7 °C 1001.6 hPa WSW 2.7 km/h 6.4 km/h 88 % 0 mm
23:01 24.9 °C 22.6 °C 1001.6 hPa SSW 7.7 km/h 13 km/h 87 % 0 mm
23:06 25 °C 22.7 °C 1001.2 hPa SW 2.9 km/h 5.6 km/h 87 % 0 mm
23:11 25.1 °C 22.7 °C 1001.2 hPa SW 3.9 km/h 11.1 km/h 87 % 0 mm
23:16 25.2 °C 22.9 °C 1001.2 hPa SSW 9.3 km/h 22.2 km/h 87 % 0 mm
23:21 25.3 °C 22.9 °C 1001.2 hPa South 4 km/h 11.1 km/h 87 % 0 mm
23:26 25.3 °C 22.8 °C 1001.2 hPa WSW 4 km/h 13 km/h 86 % 0 mm
23:32 25.4 °C 22.9 °C 1001.2 hPa SSW 5 km/h 5 km/h 86 % 0 mm
23:37 25.4 °C 22.9 °C 1001.2 hPa WSW 3.1 km/h 9.7 km/h 86 % 0 mm
23:42 25.4 °C 22.9 °C 1001.2 hPa SSW 2.1 km/h 14.8 km/h 86 % 0 mm
23:47 25.4 °C 22.7 °C 1001.2 hPa SSW 5.6 km/h 7.4 km/h 85 % 0 mm
23:52 25.4 °C 22.7 °C 1001.2 hPa SSW 2.3 km/h 5.6 km/h 85 % 0 mm
23:57 25.4 °C 22.7 °C 1001.2 hPa SSW 1.3 km/h 16.7 km/h 85 % 0 mm
Crab Meadow Weather
Compliments of Weather Underground - 3 mb

Script developed by  Jim McMurry - jmcmurry@mwt.net Adapted for the template by  Wim van der Kuil - Leuven-Template.eu

Extremes: In Wyndham, Australia, the temperature reached 90 degrees F for 333 days in 1946.